Location: 5810 Zion Rd, Cleves, OH 45002, USA
(39.1922°N, 84.7113°W)
Time: 10:25:09
(UTC-05:00)

deb Explorer IX - All Passes

Search period start: 08 December 2019 00:00
Search period end: 18 December 2019 00:00
Orbit: 545 x 1105 km, 38.8° (Epoch: 08 December)

Date Brightness Start Highest point End Pass type
(mag) Time Alt. Az. Time Alt. Az. Time Alt. Az.
08 Dec - 00:36:31 10° W 00:41:19 19° SW 00:45:59 10° S night (unlit)
08 Dec - 15:22:31 10° SSE 15:24:26 12° SE 15:26:28 10° ESE daylight
08 Dec - 17:04:56 10° SW 17:10:28 42° SSE 17:16:49 10° E daylight
08 Dec - 18:51:06 10° WSW 18:57:32 81° S 19:04:44 10° E visible
08 Dec - 20:38:13 10° W 20:45:07 84° S 20:52:30 10° ESE visible
08 Dec - 22:25:35 10° W 22:32:30 50° SSW 22:39:29 10° SE visible
09 Dec - 00:14:22 10° W 00:19:08 19° SW 00:23:48 10° S night (unlit)
09 Dec - 15:00:38 10° SSE 15:02:21 11° SE 15:04:09 10° ESE daylight
09 Dec - 16:42:57 10° SW 16:48:21 42° SSE 16:54:34 10° E daylight
09 Dec - 18:29:07 10° WSW 18:35:22 81° S 18:42:30 10° E visible
09 Dec - 20:16:09 10° W 20:22:56 83° S 20:30:17 10° ESE visible
09 Dec - 22:03:28 10° W 22:10:17 50° SSW 22:17:18 10° SE visible
09 Dec - 23:52:15 10° W 23:56:56 18° SW 00:01:36 10° S night (unlit)
10 Dec - 14:38:48 10° SSE 14:40:16 11° SE 14:41:49 10° ESE daylight
10 Dec - 16:21:01 10° SW 16:26:15 42° SSE 16:32:18 10° E daylight
10 Dec - 18:07:08 10° WSW 18:13:13 82° S 18:20:14 10° E visible
10 Dec - 19:54:07 10° W 20:00:44 83° S 20:08:02 10° ESE visible
10 Dec - 21:41:22 10° W 21:48:05 49° SSW 21:55:05 10° SE visible
10 Dec - 23:30:08 10° W 23:34:45 18° SW 23:39:22 10° S night (unlit)
11 Dec - 14:17:00 10° SSE 14:18:12 11° SE 14:19:27 10° ESE daylight
11 Dec - 15:59:05 10° SW 16:04:09 42° SSE 16:10:03 10° E daylight
11 Dec - 17:45:10 10° WSW 17:51:05 82° S 17:57:58 10° E visible
11 Dec - 19:32:05 10° W 19:38:34 82° S 19:45:48 10° ESE visible
11 Dec - 21:19:17 10° W 21:25:52 48° SSW 21:32:50 10° SE visible
11 Dec - 23:08:03 10° WSW 23:12:33 18° SW 23:17:05 10° S night (unlit)
12 Dec - 13:55:15 10° SE 13:56:08 10° SE 13:57:03 10° SE daylight
12 Dec - 15:37:08 10° SW 15:42:04 41° SSE 15:47:48 10° E daylight
12 Dec - 17:23:12 10° WSW 17:28:58 82° S 17:35:43 10° E daylight
12 Dec - 19:10:05 10° W 19:16:23 82° S 19:23:32 10° ESE visible
12 Dec - 20:57:13 10° W 21:03:40 47° SSW 21:10:35 10° SE visible
12 Dec - 22:45:59 10° WSW 22:50:21 17° SW 22:54:47 10° S night (unlit)
13 Dec - 13:33:40 10° SE 13:34:05 10° SE 13:34:29 10° SE daylight
13 Dec - 15:15:13 10° SW 15:19:59 41° SSE 15:25:33 10° E daylight
13 Dec - 17:01:16 10° WSW 17:06:51 82° S 17:13:27 10° E daylight
13 Dec - 18:48:05 10° W 18:54:13 81° S 19:01:16 10° ESE visible
13 Dec - 20:35:10 10° W 20:41:28 46° SSW 20:48:19 10° SE visible
13 Dec - 22:23:57 10° WSW 22:28:08 17° SW 22:32:26 10° S visible
14 Dec - 14:53:17 10° SW 14:57:55 41° SSE 15:03:19 10° E daylight
14 Dec - 16:39:20 10° WSW 16:44:45 82° S 16:51:10 10° E daylight
14 Dec - 18:26:06 10° W 18:32:04 81° S 18:38:59 10° ESE visible
14 Dec - 20:13:08 10° W 20:19:16 45° SSW 20:26:02 10° SE visible
14 Dec - 22:01:57 10° WSW 22:05:57 16° SW 22:10:04 10° S visible
15 Dec - 14:31:23 10° SW 14:35:52 40° SSE 14:41:05 10° E daylight
15 Dec - 16:17:24 10° WSW 16:22:40 82° S 16:28:55 10° E daylight
15 Dec - 18:04:08 10° W 18:09:56 80° S 18:16:43 10° ESE visible
15 Dec - 19:51:08 10° W 19:57:05 44° SSW 20:03:43 10° SE visible
15 Dec - 21:39:58 10° WSW 21:43:45 15° SW 21:47:40 10° S visible
16 Dec - 14:09:27 10° SW 14:13:49 40° SSE 14:18:52 10° E daylight
16 Dec - 15:55:29 10° W 16:00:35 83° S 16:06:39 10° E daylight
16 Dec - 17:42:10 10° W 17:47:48 79° S 17:54:26 10° ESE visible
16 Dec - 19:29:07 10° W 19:34:55 42° SSW 19:41:25 10° SE visible
16 Dec - 21:18:02 10° WSW 21:21:34 15° SW 21:25:13 10° S visible
17 Dec - 13:47:32 10° SW 13:51:47 40° SSE 13:56:40 10° E daylight
17 Dec - 15:33:34 10° W 15:38:31 83° S 15:44:24 10° E daylight
17 Dec - 17:20:13 10° W 17:25:41 78° S 17:32:08 10° ESE daylight
17 Dec - 19:07:08 10° W 19:12:44 41° SSW 19:19:06 10° SE visible
17 Dec - 20:56:09 10° WSW 20:59:22 14° SW 21:02:44 10° S visible
